Time,TemperatureF,DewpointF,PressureIn,WindDirection,WindDirectionDegrees,WindSpeedMPH,WindSpeedGustMPH,Humidity,HourlyPrecipIn,Conditions,Clouds,dailyrainin,SoftwareType,DateUTC
2013-08-29 00:01:00,68.8,67.6,29.52,East,101,0.0,0.0,96,0.00,,,0.00,WeatherCatV1.02B3,2013-08-29 04:01:00,
2013-08-29 00:06:00,68.6,67.4,29.52,East,98,0.0,0.0,96,0.00,,,0.00,WeatherCatV1.02B3,2013-08-29 04:06:00,
2013-08-29 00:11:00,68.5,67.6,29.52,East,98,0.0,0.0,97,0.00,,,0.00,WeatherCatV1.02B3,2013-08-29 04:11:00,
2013-08-29 00:16:00,68.3,67.1,29.52,East,99,0.0,0.0,96,0.00,,,0.00,WeatherCatV1.02B3,2013-08-29 04:16:00,
2013-08-29 00:21:00,68.0,66.8,29.52,East,98,0.0,0.0,96,0.00,,,0.00,WeatherCatV1.02B3,2013-08-29 04:21:00,
2013-08-29 00:26:00,67.9,67.0,29.52,East,98,0.0,0.0,97,0.00,,,0.00,WeatherCatV1.02B3,2013-08-29 04:26:00,
2013-08-29 00:31:00,67.7,66.8,29.52,East,99,0.0,0.0,97,0.00,,,0.00,WeatherCatV1.02B3,2013-08-29 04:31:00,
2013-08-29 00:36:00,67.5,66.3,29.52,East,98,0.0,0.0,96,0.00,,,0.00,WeatherCatV1.02B3,2013-08-29 04:36:00,
2013-08-29 00:41:00,67.3,66.4,29.52,East,98,0.0,0.0,97,0.00,,,0.00,WeatherCatV1.02B3,2013-08-29 04:41:00,
2013-08-29 00:46:00,67.2,66.3,29.52,East,98,0.0,0.0,97,0.00,,,0.00,WeatherCatV1.02B3,2013-08-29 04:46:00,
2013-08-29 00:51:00,67.2,66.3,29.52,East,99,0.0,0.0,97,0.00,,,0.00,WeatherCatV1.02B3,2013-08-29 04:51:00,
2013-08-29 00:56:00,67.0,66.1,29.52,East,101,0.0,0.0,97,0.00,,,0.00,WeatherCatV1.02B3,2013-08-29 04:56:00,
2013-08-29 01:01:00,66.8,65.9,29.52,East,99,0.0,0.0,97,0.00,,,0.00,WeatherCatV1.02B3,2013-08-29 05:01:00,
2013-08-29 01:06:00,66.8,65.9,29.52,East,98,0.0,0.0,97,0.00,,,0.00,WeatherCatV1.02B3,2013-08-29 05:06:00,
2013-08-29 01:11:00,66.9,66.0,29.52,East,98,0.0,0.0,97,0.00,,,0.00,WeatherCatV1.02B3,2013-08-29 05:11:00,
2013-08-29 01:16:00,66.9,66.0,29.52,East,101,0.0,0.0,97,0.00,,,0.00,WeatherCatV1.02B3,2013-08-29 05:16:00,
2013-08-29 01:21:00,66.9,66.0,29.52,East,99,0.0,0.0,97,0.00,,,0.00,WeatherCatV1.02B3,2013-08-29 05:21:00,
2013-08-29 01:26:00,66.9,66.0,29.52,East,99,0.0,0.0,97,0.00,,,0.00,WeatherCatV1.02B3,2013-08-29 05:26:00,
2013-08-29 01:31:00,66.7,65.8,29.53,East,101,0.0,0.0,97,0.00,,,0.00,WeatherCatV1.02B3,2013-08-29 05:31:00,
2013-08-29 01:36:00,66.4,65.5,29.53,East,99,0.0,0.0,97,0.00,,,0.00,WeatherCatV1.02B3,2013-08-29 05:36:00,
2013-08-29 01:41:00,66.2,65.3,29.53,East,101,0.0,0.0,97,0.00,,,0.00,WeatherCatV1.02B3,2013-08-29 05:41:00,
2013-08-29 01:46:00,66.0,65.1,29.53,East,101,0.0,0.0,97,0.00,,,0.00,WeatherCatV1.02B3,2013-08-29 05:46:00,
2013-08-29 01:51:00,65.8,64.9,29.52,East,101,0.0,0.0,97,0.00,,,0.00,WeatherCatV1.02B3,2013-08-29 05:51:00,
2013-08-29 01:56:00,65.7,64.8,29.52,East,101,0.0,0.0,97,0.00,,,0.00,WeatherCatV1.02B3,2013-08-29 05:56:00,
2013-08-29 02:01:00,65.5,64.6,29.52,East,99,0.0,0.0,97,0.00,,,0.00,WeatherCatV1.02B3,2013-08-29 06:01:00,
2013-08-29 02:06:00,65.4,64.5,29.52,East,100,0.0,0.0,97,0.00,,,0.00,WeatherCatV1.02B3,2013-08-29 06:06:00,
2013-08-29 02:11:00,65.3,64.4,29.52,East,101,0.0,0.0,97,0.00,,,0.00,WeatherCatV1.02B3,2013-08-29 06:11:00,
2013-08-29 02:16:00,65.2,64.3,29.52,East,98,0.0,0.0,97,0.00,,,0.00,WeatherCatV1.02B3,2013-08-29 06:16:00,
2013-08-29 02:21:00,65.2,64.3,29.52,East,101,0.0,0.0,97,0.00,,,0.00,WeatherCatV1.02B3,2013-08-29 06:21:00,
2013-08-29 02:26:00,65.2,64.3,29.53,East,99,0.0,0.0,97,0.00,,,0.00,WeatherCatV1.02B3,2013-08-29 06:26:00,
2013-08-29 02:31:00,65.1,64.2,29.52,East,100,0.0,0.0,97,0.00,,,0.00,WeatherCatV1.02B3,2013-08-29 06:31:00,
2013-08-29 02:36:00,65.0,64.1,29.53,East,101,0.0,0.0,97,0.00,,,0.00,WeatherCatV1.02B3,2013-08-29 06:36:00,
2013-08-29 02:41:00,64.9,64.0,29.53,East,101,0.0,0.0,97,0.00,,,0.00,WeatherCatV1.02B3,2013-08-29 06:41:00,
2013-08-29 02:46:00,65.0,64.4,29.53,East,99,0.0,0.0,98,0.00,,,0.00,WeatherCatV1.02B3,2013-08-29 06:46:00,
2013-08-29 02:51:00,65.0,64.4,29.53,East,99,0.0,0.0,98,0.00,,,0.00,WeatherCatV1.02B3,2013-08-29 06:51:00,
2013-08-29 02:56:00,65.2,64.6,29.53,East,98,0.0,0.0,98,0.00,,,0.00,WeatherCatV1.02B3,2013-08-29 06:56:00,
2013-08-29 03:01:00,65.1,64.5,29.53,East,98,0.0,0.0,98,0.00,,,0.00,WeatherCatV1.02B3,2013-08-29 07:01:00,
2013-08-29 03:06:00,65.0,64.4,29.52,East,98,0.0,0.0,98,0.00,,,0.00,WeatherCatV1.02B3,2013-08-29 07:06:00,
2013-08-29 03:11:00,65.0,64.4,29.52,East,98,0.0,0.0,98,0.00,,,0.00,WeatherCatV1.02B3,2013-08-29 07:11:00,
2013-08-29 03:16:00,64.9,64.0,29.52,East,101,0.0,0.0,97,0.00,,,0.00,WeatherCatV1.02B3,2013-08-29 07:16:00,
2013-08-29 03:21:00,64.8,63.9,29.52,East,99,0.0,0.0,97,0.00,,,0.00,WeatherCatV1.02B3,2013-08-29 07:21:00,
2013-08-29 03:26:00,64.7,63.8,29.52,East,98,0.0,0.0,97,0.00,,,0.00,WeatherCatV1.02B3,2013-08-29 07:26:00,
2013-08-29 03:31:00,64.6,63.7,29.52,East,100,0.0,0.0,97,0.00,,,0.00,WeatherCatV1.02B3,2013-08-29 07:31:00,
2013-08-29 03:36:00,64.5,63.6,29.52,East,98,0.0,0.0,97,0.00,,,0.00,WeatherCatV1.02B3,2013-08-29 07:36:00,
2013-08-29 03:41:00,64.6,63.7,29.52,East,98,0.0,0.0,97,0.00,,,0.00,WeatherCatV1.02B3,2013-08-29 07:41:00,
2013-08-29 03:46:00,64.5,63.6,29.52,East,99,0.0,0.0,97,0.00,,,0.00,WeatherCatV1.02B3,2013-08-29 07:46:00,
2013-08-29 03:51:00,64.5,63.9,29.52,East,100,0.0,0.0,98,0.00,,,0.00,WeatherCatV1.02B3,2013-08-29 07:51:00,
2013-08-29 03:56:00,64.4,63.5,29.52,East,101,0.0,0.0,97,0.00,,,0.00,WeatherCatV1.02B3,2013-08-29 07:56:00,
2013-08-29 04:01:00,64.5,63.9,29.52,East,100,0.0,0.0,98,0.00,,,0.00,WeatherCatV1.02B3,2013-08-29 08:01:00,
2013-08-29 04:06:00,64.6,64.0,29.52,East,99,0.0,0.0,98,0.00,,,0.00,WeatherCatV1.02B3,2013-08-29 08:06:00,
2013-08-29 04:11:00,64.6,64.0,29.52,East,98,0.0,0.0,98,0.00,,,0.00,WeatherCatV1.02B3,2013-08-29 08:11:00,
2013-08-29 04:16:00,64.5,63.9,29.52,East,100,0.0,0.0,98,0.00,,,0.00,WeatherCatV1.02B3,2013-08-29 08:16:00,
2013-08-29 04:21:00,64.5,63.9,29.52,East,99,0.0,0.0,98,0.00,,,0.00,WeatherCatV1.02B3,2013-08-29 08:21:00,
2013-08-29 04:26:00,64.4,63.8,29.52,East,100,0.0,0.0,98,0.00,,,0.00,WeatherCatV1.02B3,2013-08-29 08:26:00,
2013-08-29 04:31:00,64.4,63.8,29.52,East,101,0.0,0.0,98,0.00,,,0.00,WeatherCatV1.02B3,2013-08-29 08:31:00,
2013-08-29 04:36:00,64.4,63.8,29.52,East,98,0.0,0.0,98,0.00,,,0.00,WeatherCatV1.02B3,2013-08-29 08:36:00,
2013-08-29 04:41:00,64.5,63.9,29.52,East,101,0.0,0.0,98,0.00,,,0.00,WeatherCatV1.02B3,2013-08-29 08:41:00,
2013-08-29 04:46:00,64.4,63.5,29.52,East,99,0.0,0.0,97,0.00,,,0.00,WeatherCatV1.02B3,2013-08-29 08:46:00,
2013-08-29 04:51:00,64.3,63.7,29.52,East,98,0.0,0.0,98,0.00,,,0.00,WeatherCatV1.02B3,2013-08-29 08:51:00,
2013-08-29 04:56:00,64.3,63.7,29.52,East,100,0.0,0.0,98,0.00,,,0.00,WeatherCatV1.02B3,2013-08-29 08:56:00,
2013-08-29 05:01:00,64.2,63.6,29.52,East,101,0.0,0.0,98,0.00,,,0.00,WeatherCatV1.02B3,2013-08-29 09:01:00,
2013-08-29 05:06:00,64.1,63.5,29.52,East,101,0.0,0.0,98,0.00,,,0.00,WeatherCatV1.02B3,2013-08-29 09:06:00,
2013-08-29 05:11:00,64.0,63.1,29.53,East,98,0.0,0.0,97,0.00,,,0.00,WeatherCatV1.02B3,2013-08-29 09:11:00,
2013-08-29 05:16:00,63.9,63.0,29.53,East,101,0.0,0.0,97,0.00,,,0.00,WeatherCatV1.02B3,2013-08-29 09:16:00,
2013-08-29 05:21:00,63.9,63.3,29.53,East,101,0.0,0.0,98,0.00,,,0.00,WeatherCatV1.02B3,2013-08-29 09:21:00,
2013-08-29 05:26:00,63.8,63.2,29.53,East,100,0.0,0.0,98,0.00,,,0.00,WeatherCatV1.02B3,2013-08-29 09:26:00,
2013-08-29 05:31:00,63.7,63.1,29.53,East,99,0.0,0.0,98,0.00,,,0.00,WeatherCatV1.02B3,2013-08-29 09:31:00,
2013-08-29 05:36:00,63.6,63.0,29.53,East,99,0.0,0.0,98,0.00,,,0.00,WeatherCatV1.02B3,2013-08-29 09:36:00,
2013-08-29 05:41:00,63.7,63.1,29.53,East,98,0.0,0.0,98,0.00,,,0.00,WeatherCatV1.02B3,2013-08-29 09:41:00,
2013-08-29 05:46:00,63.7,63.1,29.53,East,101,0.0,0.0,98,0.00,,,0.00,WeatherCatV1.02B3,2013-08-29 09:46:00,
2013-08-29 05:51:00,63.6,63.0,29.53,East,99,0.0,0.0,98,0.00,,,0.00,WeatherCatV1.02B3,2013-08-29 09:51:00,
2013-08-29 05:56:00,63.5,62.9,29.53,East,100,0.0,0.0,98,0.00,,,0.00,WeatherCatV1.02B3,2013-08-29 09:56:00,
2013-08-29 06:01:00,63.8,63.2,29.54,East,98,0.0,0.0,98,0.00,,,0.00,WeatherCatV1.02B3,2013-08-29 10:01:00,
2013-08-29 06:06:00,63.9,63.3,29.54,East,100,0.0,0.0,98,0.00,,,0.00,WeatherCatV1.02B3,2013-08-29 10:06:00,
2013-08-29 06:11:00,64.2,63.6,29.54,East,101,0.0,0.0,98,0.00,,,0.00,WeatherCatV1.02B3,2013-08-29 10:11:00,
2013-08-29 06:16:00,64.4,63.8,29.54,East,98,0.0,0.0,98,0.00,,,0.00,WeatherCatV1.02B3,2013-08-29 10:16:00,
2013-08-29 06:21:00,64.5,63.9,29.54,East,101,0.0,0.0,98,0.00,,,0.00,WeatherCatV1.02B3,2013-08-29 10:21:00,
2013-08-29 06:26:00,64.7,64.1,29.54,East,101,0.0,0.0,98,0.00,,,0.00,WeatherCatV1.02B3,2013-08-29 10:26:00,
2013-08-29 06:31:00,64.9,64.3,29.54,East,99,0.0,0.0,98,0.00,,,0.00,WeatherCatV1.02B3,2013-08-29 10:31:00,
2013-08-29 06:36:00,65.0,64.4,29.54,East,100,0.0,0.0,98,0.00,,,0.00,WeatherCatV1.02B3,2013-08-29 10:36:00,
2013-08-29 06:41:00,65.1,64.5,29.54,East,100,0.0,0.0,98,0.00,,,0.00,WeatherCatV1.02B3,2013-08-29 10:41:00,
2013-08-29 06:46:00,65.3,64.7,29.54,East,101,0.0,0.0,98,0.00,,,0.00,WeatherCatV1.02B3,2013-08-29 10:46:00,
2013-08-29 06:51:00,65.4,64.8,29.54,East,101,0.0,0.0,98,0.00,,,0.00,WeatherCatV1.02B3,2013-08-29 10:51:00,
2013-08-29 06:56:00,65.5,64.9,29.54,East,98,0.0,0.0,98,0.00,,,0.00,WeatherCatV1.02B3,2013-08-29 10:56:00,
2013-08-29 07:01:00,65.6,65.0,29.54,East,101,0.0,0.0,98,0.00,,,0.00,WeatherCatV1.02B3,2013-08-29 11:01:00,
2013-08-29 07:06:00,65.7,65.1,29.55,East,101,0.0,0.0,98,0.00,,,0.00,WeatherCatV1.02B3,2013-08-29 11:06:00,
2013-08-29 07:11:00,65.7,65.1,29.55,East,99,0.0,0.0,98,0.00,,,0.00,WeatherCatV1.02B3,2013-08-29 11:11:00,
2013-08-29 07:16:00,65.9,65.3,29.55,East,100,0.0,0.0,98,0.00,,,0.00,WeatherCatV1.02B3,2013-08-29 11:16:00,
2013-08-29 07:21:00,66.1,65.5,29.55,East,98,0.0,0.0,98,0.00,,,0.00,WeatherCatV1.02B3,2013-08-29 11:21:00,
2013-08-29 07:26:00,66.2,65.6,29.55,East,98,0.0,0.0,98,0.00,,,0.00,WeatherCatV1.02B3,2013-08-29 11:26:00,
2013-08-29 07:31:00,66.3,65.7,29.56,East,99,0.0,0.0,98,0.00,,,0.00,WeatherCatV1.02B3,2013-08-29 11:31:00,
2013-08-29 07:36:00,66.4,65.8,29.56,East,99,0.0,0.0,98,0.00,,,0.00,WeatherCatV1.02B3,2013-08-29 11:36:00,
2013-08-29 07:41:00,66.6,66.0,29.56,East,99,0.0,0.0,98,0.00,,,0.00,WeatherCatV1.02B3,2013-08-29 11:41:00,
2013-08-29 07:46:00,66.7,66.1,29.56,East,99,0.0,0.0,98,0.00,,,0.00,WeatherCatV1.02B3,2013-08-29 11:46:00,
2013-08-29 07:51:00,66.9,66.3,29.56,East,98,0.0,0.0,98,0.00,,,0.00,WeatherCatV1.02B3,2013-08-29 11:51:00,
2013-08-29 07:56:00,67.1,66.5,29.56,East,99,0.0,0.0,98,0.00,,,0.00,WeatherCatV1.02B3,2013-08-29 11:56:00,
2013-08-29 08:01:00,67.3,66.7,29.56,East,98,0.0,0.0,98,0.00,,,0.00,WeatherCatV1.02B3,2013-08-29 12:01:00,
2013-08-29 08:06:00,67.7,67.1,29.56,East,98,0.0,0.0,98,0.00,,,0.00,WeatherCatV1.02B3,2013-08-29 12:06:00,
2013-08-29 08:11:00,67.8,67.2,29.57,East,98,0.0,0.0,98,0.00,,,0.00,WeatherCatV1.02B3,2013-08-29 12:11:00,
2013-08-29 08:16:00,68.0,67.4,29.56,East,99,0.0,0.0,98,0.00,,,0.00,WeatherCatV1.02B3,2013-08-29 12:16:00,
2013-08-29 08:21:00,68.3,67.7,29.56,East,98,0.0,0.0,98,0.00,,,0.00,WeatherCatV1.02B3,2013-08-29 12:21:00,
2013-08-29 08:26:00,68.6,68.0,29.56,East,98,0.0,0.0,98,0.00,,,0.00,WeatherCatV1.02B3,2013-08-29 12:26:00,
2013-08-29 08:31:00,68.9,68.3,29.57,East,98,0.0,0.0,98,0.00,,,0.00,WeatherCatV1.02B3,2013-08-29 12:31:00,
2013-08-29 08:36:00,69.2,68.6,29.56,East,99,0.0,0.0,98,0.00,,,0.00,WeatherCatV1.02B3,2013-08-29 12:36:00,
2013-08-29 08:41:00,69.5,68.9,29.57,East,99,0.0,1.0,98,0.00,,,0.00,WeatherCatV1.02B3,2013-08-29 12:41:00,
2013-08-29 08:46:00,69.6,69.0,29.57,East,98,0.0,1.0,98,0.00,,,0.00,WeatherCatV1.02B3,2013-08-29 12:46:00,
2013-08-29 08:51:00,69.8,69.2,29.57,East,98,0.0,0.0,98,0.00,,,0.00,WeatherCatV1.02B3,2013-08-29 12:51:00,
2013-08-29 08:56:00,70.0,69.4,29.57,East,98,0.0,0.0,98,0.00,,,0.00,WeatherCatV1.02B3,2013-08-29 12:56:00,
2013-08-29 09:01:00,70.3,69.7,29.57,East,98,0.0,1.0,98,0.00,,,0.00,WeatherCatV1.02B3,2013-08-29 13:01:00,
2013-08-29 09:06:00,70.4,69.8,29.57,NNE,26,0.0,0.0,98,0.00,,,0.00,WeatherCatV1.02B3,2013-08-29 13:06:00,
2013-08-29 09:11:00,70.5,69.9,29.57,NNE,26,0.0,0.0,98,0.00,,,0.00,WeatherCatV1.02B3,2013-08-29 13:11:00,
2013-08-29 09:16:00,70.7,70.1,29.56,NNE,26,0.0,0.0,98,0.00,,,0.00,WeatherCatV1.02B3,2013-08-29 13:16:00,
2013-08-29 09:21:00,71.2,70.6,29.56,NNE,26,0.0,0.0,98,0.00,,,0.00,WeatherCatV1.02B3,2013-08-29 13:21:00,
2013-08-29 09:26:00,71.5,70.9,29.56,NNE,30,0.0,1.0,98,0.00,,,0.00,WeatherCatV1.02B3,2013-08-29 13:26:00,
2013-08-29 09:31:00,70.9,70.3,29.56,East,81,0.0,0.0,98,0.00,,,0.00,WeatherCatV1.02B3,2013-08-29 13:31:00,
2013-08-29 09:36:00,71.0,70.4,29.57,East,80,0.0,0.0,98,0.00,,,0.00,WeatherCatV1.02B3,2013-08-29 13:36:00,
2013-08-29 09:41:00,71.1,70.2,29.57,East,80,0.0,0.0,97,0.00,,,0.00,WeatherCatV1.02B3,2013-08-29 13:41:00,
2013-08-29 09:46:00,71.2,70.3,29.57,East,79,1.0,1.0,97,0.00,,,0.00,WeatherCatV1.02B3,2013-08-29 13:46:00,
2013-08-29 09:51:00,71.4,70.5,29.57,East,79,0.0,1.0,97,0.00,,,0.00,WeatherCatV1.02B3,2013-08-29 13:51:00,
2013-08-29 09:56:00,71.6,70.7,29.57,East,79,0.0,0.0,97,0.00,,,0.00,WeatherCatV1.02B3,2013-08-29 13:56:00,
2013-08-29 10:01:00,71.5,70.6,29.57,East,79,0.0,1.0,97,0.00,,,0.00,WeatherCatV1.02B3,2013-08-29 14:01:00,
2013-08-29 10:06:00,71.6,70.7,29.57,East,79,0.0,0.0,97,0.00,,,0.00,WeatherCatV1.02B3,2013-08-29 14:06:00,
2013-08-29 10:11:00,72.3,71.4,29.57,SW,226,0.0,0.0,97,0.00,,,0.00,WeatherCatV1.02B3,2013-08-29 14:11:00,
2013-08-29 10:16:00,73.2,72.3,29.57,West,274,1.0,1.0,97,0.00,,,0.00,WeatherCatV1.02B3,2013-08-29 14:16:00,
2013-08-29 10:21:00,73.3,72.1,29.57,SSE,150,0.0,1.0,96,0.00,,,0.00,WeatherCatV1.02B3,2013-08-29 14:21:00,
2013-08-29 10:26:00,73.8,72.6,29.57,WSW,248,0.0,1.0,96,0.00,,,0.00,WeatherCatV1.02B3,2013-08-29 14:26:00,
2013-08-29 10:31:00,74.6,73.4,29.57,SSE,154,0.0,1.0,96,0.00,,,0.00,WeatherCatV1.02B3,2013-08-29 14:31:00,
2013-08-29 10:36:00,75.7,73.5,29.57,SW,226,0.0,1.0,93,0.00,,,0.00,WeatherCatV1.02B3,2013-08-29 14:36:00,
2013-08-29 10:41:00,76.8,74.0,29.57,South,182,0.0,1.0,91,0.00,,,0.00,WeatherCatV1.02B3,2013-08-29 14:41:00,
2013-08-29 10:46:00,77.6,73.4,29.57,East,96,0.0,1.0,87,0.00,,,0.00,WeatherCatV1.02B3,2013-08-29 14:46:00,
2013-08-29 10:51:00,77.8,72.9,29.57,SSE,150,1.0,1.0,85,0.00,,,0.00,WeatherCatV1.02B3,2013-08-29 14:51:00,
2013-08-29 10:56:00,77.9,71.6,29.58,SE,143,0.0,2.0,81,0.00,,,0.00,WeatherCatV1.02B3,2013-08-29 14:56:00,
2013-08-29 11:01:00,78.1,71.8,29.58,East,98,1.0,1.0,81,0.00,,,0.00,WeatherCatV1.02B3,2013-08-29 15:01:00,
2013-08-29 11:06:00,78.8,72.1,29.57,NNE,18,2.0,2.0,80,0.00,,,0.00,WeatherCatV1.02B3,2013-08-29 15:06:00,
2013-08-29 11:11:00,79.0,71.5,29.58,ESE,115,0.0,2.0,78,0.00,,,0.00,WeatherCatV1.02B3,2013-08-29 15:11:00,
2013-08-29 11:16:00,79.4,71.2,29.57,SSW,207,1.0,1.0,76,0.00,,,0.00,WeatherCatV1.02B3,2013-08-29 15:16:00,
2013-08-29 11:21:00,80.3,72.0,29.58,South,187,0.0,0.0,76,0.00,,,0.00,WeatherCatV1.02B3,2013-08-29 15:21:00,
2013-08-29 11:26:00,80.6,70.3,29.57,NE,34,1.0,1.0,71,0.00,,,0.00,WeatherCatV1.02B3,2013-08-29 15:26:00,
2013-08-29 11:31:00,80.6,69.9,29.57,ESE,103,0.0,1.0,70,0.00,,,0.00,WeatherCatV1.02B3,2013-08-29 15:31:00,
2013-08-29 11:36:00,81.4,72.3,29.57,ESE,107,0.0,0.0,74,0.00,,,0.00,WeatherCatV1.02B3,2013-08-29 15:36:00,
2013-08-29 11:41:00,81.7,70.9,29.57,SSW,201,1.0,2.0,70,0.00,,,0.00,WeatherCatV1.02B3,2013-08-29 15:41:00,
2013-08-29 11:46:00,81.2,70.9,29.57,NW,316,0.0,3.0,71,0.00,,,0.00,WeatherCatV1.02B3,2013-08-29 15:46:00,
2013-08-29 11:51:00,81.2,72.1,29.57,SE,138,1.0,1.0,74,0.00,,,0.00,WeatherCatV1.02B3,2013-08-29 15:51:00,
2013-08-29 11:56:00,81.5,72.0,29.57,SE,140,0.0,1.0,73,0.00,,,0.00,WeatherCatV1.02B3,2013-08-29 15:56:00,
2013-08-29 12:01:00,81.6,71.3,29.57,ESE,116,0.0,2.0,71,0.00,,,0.00,WeatherCatV1.02B3,2013-08-29 16:01:00,
2013-08-29 12:06:00,82.3,73.6,29.57,West,269,1.0,2.0,75,0.00,,,0.00,WeatherCatV1.02B3,2013-08-29 16:06:00,
2013-08-29 12:11:00,82.5,74.1,29.57,East,89,1.0,1.0,76,0.00,,,0.00,WeatherCatV1.02B3,2013-08-29 16:11:00,
2013-08-29 12:16:00,83.2,75.6,29.57,SE,139,1.0,2.0,78,0.00,,,0.00,WeatherCatV1.02B3,2013-08-29 16:16:00,
2013-08-29 12:21:00,83.2,74.8,29.57,SSE,155,2.0,2.0,76,0.00,,,0.00,WeatherCatV1.02B3,2013-08-29 16:21:00,
2013-08-29 12:26:00,83.7,73.3,29.57,WSW,256,2.0,3.0,71,0.00,,,0.00,WeatherCatV1.02B3,2013-08-29 16:26:00,
2013-08-29 12:31:00,83.5,73.9,29.57,WNW,291,1.0,3.0,73,0.00,,,0.00,WeatherCatV1.02B3,2013-08-29 16:31:00,
2013-08-29 12:36:00,82.8,73.2,29.57,West,281,0.0,1.0,73,0.00,,,0.00,WeatherCatV1.02B3,2013-08-29 16:36:00,
2013-08-29 12:41:00,82.2,73.5,29.57,SSW,211,1.0,4.0,75,0.00,,,0.00,WeatherCatV1.02B3,2013-08-29 16:41:00,
2013-08-29 12:46:00,82.2,73.9,29.57,ENE,75,3.0,5.0,76,0.00,,,0.00,WeatherCatV1.02B3,2013-08-29 16:46:00,
2013-08-29 12:51:00,82.0,74.1,29.57,ESE,115,0.0,3.0,77,0.00,,,0.00,WeatherCatV1.02B3,2013-08-29 16:51:00,
2013-08-29 12:56:00,82.9,74.9,29.57,SW,225,1.0,3.0,77,0.00,,,0.00,WeatherCatV1.02B3,2013-08-29 16:56:00,
2013-08-29 13:01:00,83.3,74.5,29.57,North,4,1.0,2.0,75,0.00,,,0.00,WeatherCatV1.02B3,2013-08-29 17:01:00,
2013-08-29 13:06:00,83.5,75.1,29.57,SSW,195,1.0,5.0,76,0.00,,,0.00,WeatherCatV1.02B3,2013-08-29 17:06:00,
2013-08-29 13:11:00,83.6,75.2,29.57,WSW,243,1.0,4.0,76,0.00,,,0.00,WeatherCatV1.02B3,2013-08-29 17:11:00,
2013-08-29 13:17:00,83.5,74.3,29.57,NW,308,1.0,3.0,74,0.00,,,0.00,WeatherCatV1.02B3,2013-08-29 17:17:00,
2013-08-29 13:22:00,83.7,75.3,29.57,SSW,201,0.0,4.0,76,0.00,,,0.00,WeatherCatV1.02B3,2013-08-29 17:22:00,
2013-08-29 13:27:00,83.6,74.4,29.56,WSW,238,2.0,3.0,74,0.00,,,0.00,WeatherCatV1.02B3,2013-08-29 17:27:00,
2013-08-29 13:32:00,84.1,75.7,29.56,West,270,3.0,3.0,76,0.00,,,0.00,WeatherCatV1.02B3,2013-08-29 17:32:00,
2013-08-29 13:37:00,83.9,74.7,29.56,WSW,238,1.0,5.0,74,0.00,,,0.00,WeatherCatV1.02B3,2013-08-29 17:37:00,
2013-08-29 13:42:00,83.7,74.9,29.56,WSW,256,2.0,4.0,75,0.00,,,0.00,WeatherCatV1.02B3,2013-08-29 17:42:00,
2013-08-29 13:47:00,83.7,75.3,29.56,West,269,1.0,3.0,76,0.00,,,0.00,WeatherCatV1.02B3,2013-08-29 17:47:00,
2013-08-29 13:52:00,83.7,74.5,29.56,South,188,0.0,3.0,74,0.00,,,0.00,WeatherCatV1.02B3,2013-08-29 17:52:00,
2013-08-29 13:57:00,83.5,75.1,29.56,SW,214,0.0,2.0,76,0.00,,,0.00,WeatherCatV1.02B3,2013-08-29 17:57:00,
2013-08-29 14:02:00,84.1,74.5,29.56,NNE,22,2.0,3.0,73,0.00,,,0.00,WeatherCatV1.02B3,2013-08-29 18:02:00,
2013-08-29 14:07:00,83.9,75.5,29.56,SSW,210,1.0,3.0,76,0.00,,,0.00,WeatherCatV1.02B3,2013-08-29 18:07:00,
2013-08-29 14:12:00,83.7,74.9,29.55,WSW,249,1.0,4.0,75,0.00,,,0.00,WeatherCatV1.02B3,2013-08-29 18:12:00,
2013-08-29 14:17:00,83.9,75.1,29.55,WNW,293,0.0,4.0,75,0.00,,,0.00,WeatherCatV1.02B3,2013-08-29 18:17:00,
2013-08-29 14:22:00,83.8,74.6,29.55,South,188,0.0,1.0,74,0.00,,,0.00,WeatherCatV1.02B3,2013-08-29 18:22:00,
2013-08-29 14:27:00,84.3,73.8,29.55,SW,221,0.0,5.0,71,0.00,,,0.00,WeatherCatV1.02B3,2013-08-29 18:27:00,
2013-08-29 14:32:00,84.0,73.6,29.55,WNW,291,1.0,7.0,71,0.00,,,0.00,WeatherCatV1.02B3,2013-08-29 18:32:00,
2013-08-29 14:37:00,83.5,73.9,29.55,West,260,1.0,2.0,73,0.00,,,0.00,WeatherCatV1.02B3,2013-08-29 18:37:00,
2013-08-29 14:42:00,83.4,74.2,29.55,WNW,297,0.0,1.0,74,0.00,,,0.00,WeatherCatV1.02B3,2013-08-29 18:42:00,
2013-08-29 14:47:00,83.6,74.8,29.54,SW,226,0.0,1.0,75,0.00,,,0.00,WeatherCatV1.02B3,2013-08-29 18:47:00,
2013-08-29 14:52:00,84.0,74.4,29.54,WSW,239,1.0,3.0,73,0.00,,,0.00,WeatherCatV1.02B3,2013-08-29 18:52:00,
2013-08-29 14:57:00,84.2,73.7,29.54,SSE,162,0.0,1.0,71,0.00,,,0.00,WeatherCatV1.02B3,2013-08-29 18:57:00,
2013-08-29 15:02:00,84.0,73.1,29.55,South,176,1.0,4.0,70,0.00,,,0.00,WeatherCatV1.02B3,2013-08-29 19:02:00,
2013-08-29 15:07:00,83.5,73.1,29.55,ENE,65,3.0,3.0,71,0.00,,,0.00,WeatherCatV1.02B3,2013-08-29 19:07:00,
2013-08-29 15:12:00,82.9,72.9,29.55,East,83,0.0,2.0,72,0.00,,,0.00,WeatherCatV1.02B3,2013-08-29 19:12:00,
2013-08-29 15:17:00,82.9,72.9,29.54,East,96,1.0,4.0,72,0.00,,,0.00,WeatherCatV1.02B3,2013-08-29 19:17:00,
2013-08-29 15:22:00,82.9,73.3,29.54,WSW,243,2.0,2.0,73,0.00,,,0.00,WeatherCatV1.02B3,2013-08-29 19:22:00,
2013-08-29 15:27:00,83.2,73.6,29.54,WNW,283,0.0,2.0,73,0.00,,,0.00,WeatherCatV1.02B3,2013-08-29 19:27:00,
2013-08-29 15:32:00,83.3,72.9,29.54,SW,226,1.0,3.0,71,0.00,,,0.00,WeatherCatV1.02B3,2013-08-29 19:32:00,
2013-08-29 15:37:00,83.4,73.4,29.54,SSW,207,1.0,3.0,72,0.00,,,0.00,WeatherCatV1.02B3,2013-08-29 19:37:00,
2013-08-29 15:42:00,83.2,73.2,29.53,West,267,1.0,4.0,72,0.00,,,0.00,WeatherCatV1.02B3,2013-08-29 19:42:00,
2013-08-29 15:47:00,82.9,72.1,29.53,SSW,213,2.0,2.0,70,0.00,,,0.00,WeatherCatV1.02B3,2013-08-29 19:47:00,
2013-08-29 15:52:00,82.6,72.6,29.53,SSW,199,1.0,2.0,72,0.00,,,0.00,WeatherCatV1.02B3,2013-08-29 19:52:00,
2013-08-29 15:57:00,82.9,72.9,29.53,ENE,70,0.0,2.0,72,0.00,,,0.00,WeatherCatV1.02B3,2013-08-29 19:57:00,
2013-08-29 16:02:00,83.4,73.4,29.53,West,269,1.0,1.0,72,0.00,,,0.00,WeatherCatV1.02B3,2013-08-29 20:02:00,
2013-08-29 16:07:00,83.8,72.5,29.53,WNW,282,1.0,3.0,69,0.00,,,0.00,WeatherCatV1.02B3,2013-08-29 20:07:00,
2013-08-29 16:12:00,83.2,72.8,29.52,West,273,2.0,2.0,71,0.00,,,0.00,WeatherCatV1.02B3,2013-08-29 20:12:00,
2013-08-29 16:17:00,83.0,72.6,29.52,SE,137,0.0,2.0,71,0.00,,,0.00,WeatherCatV1.02B3,2013-08-29 20:17:00,
2013-08-29 16:22:00,83.4,72.1,29.52,SW,218,1.0,2.0,69,0.00,,,0.00,WeatherCatV1.02B3,2013-08-29 20:22:00,
2013-08-29 16:27:00,83.4,72.1,29.52,NNW,330,1.0,5.0,69,0.00,,,0.00,WeatherCatV1.02B3,2013-08-29 20:27:00,
2013-08-29 16:32:00,83.1,72.7,29.52,West,259,0.0,1.0,71,0.00,,,0.00,WeatherCatV1.02B3,2013-08-29 20:32:00,
2013-08-29 16:37:00,83.3,72.5,29.52,South,191,1.0,3.0,70,0.00,,,0.00,WeatherCatV1.02B3,2013-08-29 20:37:00,
2013-08-29 16:42:00,83.2,71.5,29.52,West,273,0.0,4.0,68,0.00,,,0.00,WeatherCatV1.02B3,2013-08-29 20:42:00,
2013-08-29 16:47:00,82.9,72.1,29.52,West,278,3.0,3.0,70,0.00,,,0.00,WeatherCatV1.02B3,2013-08-29 20:47:00,
2013-08-29 16:52:00,82.6,71.8,29.52,West,267,1.0,1.0,70,0.00,,,0.00,WeatherCatV1.02B3,2013-08-29 20:52:00,
2013-08-29 16:57:00,82.4,71.6,29.52,WNW,294,0.0,1.0,70,0.00,,,0.00,WeatherCatV1.02B3,2013-08-29 20:57:00,
2013-08-29 17:02:00,82.7,72.3,29.51,WNW,283,3.0,4.0,71,0.00,,,0.00,WeatherCatV1.02B3,2013-08-29 21:02:00,
2013-08-29 17:07:00,82.6,71.8,29.51,NE,37,2.0,2.0,70,0.00,,,0.00,WeatherCatV1.02B3,2013-08-29 21:07:00,
2013-08-29 17:12:00,82.3,71.5,29.51,East,91,2.0,3.0,70,0.00,,,0.00,WeatherCatV1.02B3,2013-08-29 21:12:00,
2013-08-29 17:17:00,82.3,71.5,29.51,NNE,31,2.0,4.0,70,0.00,,,0.00,WeatherCatV1.02B3,2013-08-29 21:17:00,
2013-08-29 17:22:00,82.3,71.9,29.51,North,349,2.0,4.0,71,0.00,,,0.00,WeatherCatV1.02B3,2013-08-29 21:22:00,
2013-08-29 17:27:00,82.3,71.5,29.51,NE,49,1.0,2.0,70,0.00,,,0.00,WeatherCatV1.02B3,2013-08-29 21:27:00,
2013-08-29 17:32:00,81.9,72.0,29.51,NNW,337,0.0,2.0,72,0.00,,,0.00,WeatherCatV1.02B3,2013-08-29 21:32:00,
2013-08-29 17:37:00,82.3,71.9,29.51,West,278,0.0,1.0,71,0.00,,,0.00,WeatherCatV1.02B3,2013-08-29 21:37:00,
2013-08-29 17:42:00,82.8,72.4,29.51,NNE,19,0.0,1.0,71,0.00,,,0.00,WeatherCatV1.02B3,2013-08-29 21:42:00,
2013-08-29 17:47:00,83.0,72.2,29.52,ESE,117,2.0,2.0,70,0.00,,,0.00,WeatherCatV1.02B3,2013-08-29 21:47:00,
2013-08-29 17:52:00,82.7,71.9,29.51,NNE,18,1.0,2.0,70,0.00,,,0.00,WeatherCatV1.02B3,2013-08-29 21:52:00,
2013-08-29 17:57:00,82.5,71.7,29.51,NNE,23,1.0,1.0,70,0.00,,,0.00,WeatherCatV1.02B3,2013-08-29 21:57:00,
2013-08-29 18:02:00,82.8,72.0,29.51,NE,34,0.0,1.0,70,0.00,,,0.00,WeatherCatV1.02B3,2013-08-29 22:02:00,
2013-08-29 18:07:00,82.7,71.9,29.51,NNW,333,0.0,2.0,70,0.00,,,0.00,WeatherCatV1.02B3,2013-08-29 22:07:00,
2013-08-29 18:12:00,82.4,72.4,29.51,West,274,0.0,2.0,72,0.00,,,0.00,WeatherCatV1.02B3,2013-08-29 22:12:00,
2013-08-29 18:17:00,82.0,71.6,29.51,NE,41,0.0,1.0,71,0.00,,,0.00,WeatherCatV1.02B3,2013-08-29 22:17:00,
2013-08-29 18:22:00,81.7,71.4,29.51,NE,39,0.0,1.0,71,0.00,,,0.00,WeatherCatV1.02B3,2013-08-29 22:22:00,
2013-08-29 18:27:00,81.3,71.0,29.51,NE,54,1.0,2.0,71,0.00,,,0.00,WeatherCatV1.02B3,2013-08-29 22:27:00,
2013-08-29 18:32:00,80.5,70.2,29.51,North,356,0.0,2.0,71,0.00,,,0.00,WeatherCatV1.02B3,2013-08-29 22:32:00,
2013-08-29 18:37:00,80.0,70.1,29.51,ENE,74,2.0,2.0,72,0.00,,,0.00,WeatherCatV1.02B3,2013-08-29 22:37:00,
2013-08-29 18:42:00,79.8,70.8,29.51,NNE,15,0.0,1.0,74,0.00,,,0.00,WeatherCatV1.02B3,2013-08-29 22:42:00,
2013-08-29 18:47:00,79.6,70.6,29.51,East,82,0.0,2.0,74,0.00,,,0.00,WeatherCatV1.02B3,2013-08-29 22:47:00,
2013-08-29 18:52:00,79.3,70.7,29.51,NE,49,0.0,1.0,75,0.00,,,0.00,WeatherCatV1.02B3,2013-08-29 22:52:00,
2013-08-29 18:57:00,79.1,70.5,29.50,ENE,65,1.0,2.0,75,0.00,,,0.00,WeatherCatV1.02B3,2013-08-29 22:57:00,
2013-08-29 19:02:00,78.8,70.6,29.50,NW,304,0.0,0.0,76,0.00,,,0.00,WeatherCatV1.02B3,2013-08-29 23:02:00,
2013-08-29 19:07:00,78.6,70.4,29.50,East,94,1.0,2.0,76,0.00,,,0.00,WeatherCatV1.02B3,2013-08-29 23:07:00,
2013-08-29 19:12:00,78.4,70.6,29.50,NE,53,0.0,1.0,77,0.00,,,0.00,WeatherCatV1.02B3,2013-08-29 23:12:00,
2013-08-29 19:17:00,78.2,70.0,29.50,NNW,340,0.0,1.0,76,0.00,,,0.00,WeatherCatV1.02B3,2013-08-29 23:17:00,
2013-08-29 19:22:00,78.0,70.6,29.50,NNW,340,0.0,1.0,78,0.00,,,0.00,WeatherCatV1.02B3,2013-08-29 23:22:00,
2013-08-29 19:27:00,77.8,70.4,29.50,North,6,0.0,0.0,78,0.00,,,0.00,WeatherCatV1.02B3,2013-08-29 23:27:00,
2013-08-29 19:32:00,77.5,70.5,29.50,North,6,0.0,1.0,79,0.00,,,0.00,WeatherCatV1.02B3,2013-08-29 23:32:00,
2013-08-29 19:37:00,77.2,70.5,29.50,North,354,0.0,0.0,80,0.00,,,0.00,WeatherCatV1.02B3,2013-08-29 23:37:00,
2013-08-29 19:42:00,77.0,70.3,29.50,East,92,0.0,1.0,80,0.00,,,0.00,WeatherCatV1.02B3,2013-08-29 23:42:00,
2013-08-29 19:47:00,77.0,70.3,29.50,East,92,0.0,1.0,80,0.00,,,0.00,WeatherCatV1.02B3,2013-08-29 23:47:00,
2013-08-29 19:52:00,76.8,70.5,29.50,East,92,0.0,0.0,81,0.00,,,0.00,WeatherCatV1.02B3,2013-08-29 23:52:00,
2013-08-29 19:57:00,76.4,70.1,29.50,East,92,0.0,0.0,81,0.00,,,0.00,WeatherCatV1.02B3,2013-08-29 23:57:00,
2013-08-29 20:02:00,76.0,70.1,29.50,East,91,0.0,0.0,82,0.00,,,0.00,WeatherCatV1.02B3,2013-08-30 00:02:00,
2013-08-29 20:07:00,75.6,70.4,29.50,East,92,0.0,0.0,84,0.00,,,0.00,WeatherCatV1.02B3,2013-08-30 00:07:00,
2013-08-29 20:12:00,75.2,70.0,29.50,East,92,0.0,0.0,84,0.00,,,0.00,WeatherCatV1.02B3,2013-08-30 00:12:00,
2013-08-29 20:17:00,74.5,70.0,29.50,East,92,0.0,0.0,86,0.00,,,0.00,WeatherCatV1.02B3,2013-08-30 00:17:00,
2013-08-29 20:22:00,73.7,69.6,29.50,East,92,0.0,0.0,87,0.00,,,0.00,WeatherCatV1.02B3,2013-08-30 00:22:00,
2013-08-29 20:27:00,73.1,69.3,29.50,East,92,0.0,0.0,88,0.00,,,0.00,WeatherCatV1.02B3,2013-08-30 00:27:00,
2013-08-29 20:32:00,72.6,69.2,29.50,East,91,0.0,0.0,89,0.00,,,0.00,WeatherCatV1.02B3,2013-08-30 00:32:00,
2013-08-29 20:37:00,72.0,68.9,29.50,East,92,0.0,0.0,90,0.00,,,0.00,WeatherCatV1.02B3,2013-08-30 00:37:00,
2013-08-29 20:42:00,71.6,68.8,29.50,East,92,0.0,0.0,91,0.00,,,0.00,WeatherCatV1.02B3,2013-08-30 00:42:00,
2013-08-29 20:47:00,71.1,68.3,29.50,East,92,0.0,0.0,91,0.00,,,0.00,WeatherCatV1.02B3,2013-08-30 00:47:00,
2013-08-29 20:52:00,70.7,68.3,29.50,East,92,0.0,0.0,92,0.00,,,0.00,WeatherCatV1.02B3,2013-08-30 00:52:00,
2013-08-29 20:57:00,70.5,68.1,29.50,East,91,0.0,0.0,92,0.00,,,0.00,WeatherCatV1.02B3,2013-08-30 00:57:00,
2013-08-29 21:02:00,70.1,67.7,29.50,East,91,0.0,0.0,92,0.00,,,0.00,WeatherCatV1.02B3,2013-08-30 01:02:00,
2013-08-29 21:07:00,69.8,67.7,29.50,East,92,0.0,0.0,93,0.00,,,0.00,WeatherCatV1.02B3,2013-08-30 01:07:00,
2013-08-29 21:12:00,69.5,67.4,29.51,East,91,0.0,0.0,93,0.00,,,0.00,WeatherCatV1.02B3,2013-08-30 01:12:00,
2013-08-29 21:17:00,69.3,67.2,29.51,East,92,0.0,0.0,93,0.00,,,0.00,WeatherCatV1.02B3,2013-08-30 01:17:00,
2013-08-29 21:22:00,69.0,66.9,29.51,East,92,0.0,0.0,93,0.00,,,0.00,WeatherCatV1.02B3,2013-08-30 01:22:00,
2013-08-29 21:27:00,68.9,67.1,29.51,East,92,0.0,0.0,94,0.00,,,0.00,WeatherCatV1.02B3,2013-08-30 01:27:00,
2013-08-29 21:32:00,68.9,67.1,29.51,East,91,0.0,0.0,94,0.00,,,0.00,WeatherCatV1.02B3,2013-08-30 01:32:00,
2013-08-29 21:37:00,68.7,66.9,29.51,East,91,0.0,0.0,94,0.00,,,0.00,WeatherCatV1.02B3,2013-08-30 01:37:00,
2013-08-29 21:42:00,68.6,67.1,29.51,East,91,0.0,0.0,95,0.00,,,0.00,WeatherCatV1.02B3,2013-08-30 01:42:00,
2013-08-29 21:47:00,68.3,66.5,29.51,East,92,0.0,0.0,94,0.00,,,0.00,WeatherCatV1.02B3,2013-08-30 01:47:00,
2013-08-29 21:52:00,68.1,66.3,29.50,East,92,0.0,0.0,94,0.00,,,0.00,WeatherCatV1.02B3,2013-08-30 01:52:00,
2013-08-29 21:57:00,68.1,66.6,29.50,East,92,0.0,0.0,95,0.00,,,0.00,WeatherCatV1.02B3,2013-08-30 01:57:00,
2013-08-29 22:02:00,67.8,66.0,29.50,East,91,0.0,0.0,94,0.00,,,0.00,WeatherCatV1.02B3,2013-08-30 02:02:00,
2013-08-29 22:07:00,67.6,65.8,29.50,East,92,0.0,0.0,94,0.00,,,0.00,WeatherCatV1.02B3,2013-08-30 02:07:00,
2013-08-29 22:12:00,67.4,65.9,29.50,East,92,0.0,0.0,95,0.00,,,0.00,WeatherCatV1.02B3,2013-08-30 02:12:00,
2013-08-29 22:17:00,67.4,65.9,29.50,East,91,0.0,1.0,95,0.00,,,0.00,WeatherCatV1.02B3,2013-08-30 02:17:00,
2013-08-29 22:22:00,67.3,65.8,29.50,East,92,0.0,0.0,95,0.00,,,0.00,WeatherCatV1.02B3,2013-08-30 02:22:00,
2013-08-29 22:27:00,67.2,65.7,29.50,East,91,0.0,0.0,95,0.00,,,0.00,WeatherCatV1.02B3,2013-08-30 02:27:00,
2013-08-29 22:32:00,66.9,65.4,29.50,East,91,0.0,0.0,95,0.00,,,0.00,WeatherCatV1.02B3,2013-08-30 02:32:00,
2013-08-29 22:37:00,66.9,65.4,29.50,East,92,0.0,0.0,95,0.00,,,0.00,WeatherCatV1.02B3,2013-08-30 02:37:00,
2013-08-29 22:42:00,66.8,65.6,29.50,East,91,0.0,0.0,96,0.00,,,0.00,WeatherCatV1.02B3,2013-08-30 02:42:00,
2013-08-29 22:47:00,66.8,65.6,29.49,East,91,0.0,0.0,96,0.00,,,0.00,WeatherCatV1.02B3,2013-08-30 02:47:00,
2013-08-29 22:52:00,66.7,65.2,29.49,East,92,0.0,0.0,95,0.00,,,0.00,WeatherCatV1.02B3,2013-08-30 02:52:00,
2013-08-29 22:57:00,66.6,65.4,29.49,East,92,0.0,0.0,96,0.00,,,0.00,WeatherCatV1.02B3,2013-08-30 02:57:00,
2013-08-29 23:02:00,66.5,65.3,29.49,East,91,0.0,0.0,96,0.00,,,0.00,WeatherCatV1.02B3,2013-08-30 03:02:00,
2013-08-29 23:07:00,66.4,65.2,29.49,East,92,0.0,0.0,96,0.00,,,0.00,WeatherCatV1.02B3,2013-08-30 03:07:00,
2013-08-29 23:12:00,66.6,65.4,29.49,East,92,0.0,0.0,96,0.00,,,0.00,WeatherCatV1.02B3,2013-08-30 03:12:00,
2013-08-29 23:17:00,66.4,65.2,29.49,East,92,0.0,0.0,96,0.00,,,0.00,WeatherCatV1.02B3,2013-08-30 03:17:00,
2013-08-29 23:22:00,66.3,65.1,29.49,East,91,0.0,0.0,96,0.00,,,0.00,WeatherCatV1.02B3,2013-08-30 03:22:00,
2013-08-29 23:27:00,66.3,65.1,29.48,East,91,0.0,0.0,96,0.00,,,0.00,WeatherCatV1.02B3,2013-08-30 03:27:00,
2013-08-29 23:32:00,66.1,64.9,29.48,East,92,0.0,0.0,96,0.00,,,0.00,WeatherCatV1.02B3,2013-08-30 03:32:00,
2013-08-29 23:37:00,66.2,65.0,29.49,East,92,0.0,0.0,96,0.00,,,0.00,WeatherCatV1.02B3,2013-08-30 03:37:00,
2013-08-29 23:42:00,66.0,64.8,29.49,East,91,0.0,0.0,96,0.00,,,0.00,WeatherCatV1.02B3,2013-08-30 03:42:00,
2013-08-29 23:47:00,65.9,64.7,29.48,East,92,0.0,0.0,96,0.00,,,0.00,WeatherCatV1.02B3,2013-08-30 03:47:00,
2013-08-29 23:52:00,65.7,64.5,29.48,East,92,0.0,0.0,96,0.00,,,0.00,WeatherCatV1.02B3,2013-08-30 03:52:00,
2013-08-29 23:57:00,65.4,64.2,29.48,East,91,0.0,0.0,96,0.00,,,0.00,WeatherCatV1.02B3,2013-08-30 03:57:00,